,,,PA_Meas_PMT16A,,PR_Meas_QMR101_102,,RH_Meas_QMH101,,SR_Meas_QMS101,,TA_Meas_QMH101,,GenWind,,GenWind,
date,time,status,PA,status,PR,status,RH,status,SR,status,TA,status,DirAvg,status,SpdAvg,
2008-05-13, 00:00:04,VALID,1004.83,VALID,0,VALID,95.7119,VALID,0,VALID,23.7248,VALID,70,VALID,0.451172,
2008-05-13, 00:01:04,VALID,1004.79,VALID,0,VALID,95.6967,VALID,0.100563,VALID,23.7053,VALID,71,VALID,0.486719,
2008-05-13, 00:02:04,VALID,1004.8,VALID,0,VALID,95.6738,VALID,0,VALID,23.7053,VALID,70,VALID,0.367578,
2008-05-13, 00:03:04,VALID,1004.81,VALID,0,VALID,95.6662,VALID,0,VALID,23.6841,VALID,70,VALID,0.316016,
2008-05-13, 00:04:04,VALID,1004.81,VALID,0,VALID,95.6204,VALID,0,VALID,23.6646,VALID,70,VALID,0.327734,
2008-05-13, 00:05:04,VALID,1004.78,VALID,0,VALID,95.628,VALID,0,VALID,23.7053,VALID,70,VALID,0.284766,
2008-05-13, 00:06:04,VALID,1004.79,VALID,0,VALID,95.6128,VALID,0,VALID,23.6646,VALID,70,VALID,0.141406,
2008-05-13, 00:07:04,VALID,1004.75,VALID,0,VALID,95.5975,VALID,0,VALID,23.6646,VALID,70,VALID,0.319922,
2008-05-13, 00:08:04,VALID,1004.72,VALID,0,VALID,95.6204,VALID,0,VALID,23.6664,VALID,70,VALID,0.337109,
2008-05-13, 00:09:04,VALID,1004.72,VALID,0,VALID,95.6128,VALID,0,VALID,23.6646,VALID,70,VALID,0.419531,
2008-05-13, 00:10:04,VALID,1004.7,VALID,0,VALID,95.5899,VALID,0,VALID,23.6664,VALID,70,VALID,0.149609,
2008-05-13, 00:11:04,VALID,1004.66,VALID,0,VALID,95.5365,VALID,0,VALID,23.6469,VALID,70,VALID,0.08125,
2008-05-13, 00:12:04,VALID,1004.65,VALID,0,VALID,95.5288,VALID,0,VALID,23.6275,VALID,70,VALID,0,
2008-05-13, 00:13:04,VALID,1004.64,VALID,0,VALID,95.5365,VALID,0,VALID,23.6062,VALID,70,VALID,0.0644531,
2008-05-13, 00:14:04,VALID,1004.65,VALID,0,VALID,95.5899,VALID,0,VALID,23.6275,VALID,70,VALID,0.0753906,
2008-05-13, 00:15:04,VALID,1004.63,VALID,0,VALID,95.5899,VALID,0,VALID,23.6275,VALID,70,VALID,0.210938,
2008-05-13, 00:16:04,VALID,1004.63,VALID,0,VALID,95.4754,VALID,0,VALID,23.5885,VALID,70,VALID,0.441797,
2008-05-13, 00:17:04,VALID,1004.58,VALID,0,VALID,95.4526,VALID,0,VALID,23.5496,VALID,70,VALID,0.513281,
2008-05-13, 00:18:04,VALID,1004.58,VALID,0,VALID,95.4678,VALID,0,VALID,23.5107,VALID,69,VALID,0.382813,
2008-05-13, 00:19:04,VALID,1004.55,VALID,0,VALID,95.4831,VALID,0,VALID,23.4912,VALID,69,VALID,0.3125,
2008-05-13, 00:20:04,VALID,1004.55,VALID,0,VALID,95.4831,VALID,0,VALID,23.4293,VALID,69,VALID,0.0648438,
2008-05-13, 00:21:04,VALID,1004.52,VALID,0,VALID,95.5136,VALID,0,VALID,23.4311,VALID,69,VALID,0,
2008-05-13, 00:22:04,VALID,1004.49,VALID,0,VALID,95.5136,VALID,0,VALID,23.4311,VALID,69,VALID,0,
2008-05-13, 00:23:04,VALID,1004.47,VALID,0,VALID,95.506,VALID,0,VALID,23.4116,VALID,69,VALID,0,
2008-05-13, 00:24:04,VALID,1004.47,VALID,0,VALID,95.506,VALID,0,VALID,23.3921,VALID,69,VALID,0,
2008-05-13, 00:25:04,VALID,1004.5,VALID,0,VALID,95.567,VALID,0,VALID,23.3921,VALID,69,VALID,0,
2008-05-13, 00:26:04,VALID,1004.47,VALID,0,VALID,95.5441,VALID,0,VALID,23.3939,VALID,69,VALID,0,
2008-05-13, 00:27:04,VALID,1004.49,VALID,0,VALID,95.5212,VALID,0,VALID,23.3744,VALID,69,VALID,0,
2008-05-13, 00:28:04,VALID,1004.47,VALID,0,VALID,95.6128,VALID,0,VALID,23.3532,VALID,69,VALID,0.271484,
2008-05-13, 00:29:04,VALID,1004.52,VALID,0,VALID,95.6738,VALID,0,VALID,23.3939,VALID,67,VALID,0.537891,
2008-05-13, 00:30:04,VALID,1004.45,VALID,0,VALID,95.6814,VALID,0,VALID,23.3921,VALID,65,VALID,0.501953,
2008-05-13, 00:31:04,VALID,1004.45,VALID,0,VALID,95.7196,VALID,0,VALID,23.4328,VALID,62,VALID,0.553906,
2008-05-13, 00:32:04,VALID,1004.45,VALID,0,VALID,95.7043,VALID,0,VALID,23.4328,VALID,62,VALID,0.366016,
2008-05-13, 00:33:04,VALID,1004.44,VALID,0,VALID,95.5517,VALID,0,VALID,23.3727,VALID,62,VALID,0.305078,
2008-05-13, 00:34:04,VALID,1004.39,VALID,0,VALID,95.5136,VALID,0,VALID,23.3532,VALID,60,VALID,0.296484,
2008-05-13, 00:35:04,VALID,1004.4,VALID,0,VALID,95.5136,VALID,0,VALID,23.3143,VALID,59,VALID,0.4625,
2008-05-13, 00:36:04,VALID,1004.39,VALID,0,VALID,95.5136,VALID,0,VALID,23.3355,VALID,59,VALID,0.41875,
2008-05-13, 00:37:04,VALID,1004.38,VALID,0,VALID,95.5746,VALID,0,VALID,23.316,VALID,59,VALID,0.455859,
2008-05-13, 00:38:04,VALID,1004.35,VALID,0,VALID,95.7959,VALID,0,VALID,23.3532,VALID,59,VALID,0.427344,
2008-05-13, 00:39:04,VALID,1004.31,VALID,0,VALID,95.8264,VALID,0,VALID,23.3939,VALID,59,VALID,0.300391,
2008-05-13, 00:40:04,VALID,1004.33,VALID,0,VALID,95.8035,VALID,0,VALID,23.3744,VALID,59,VALID,0.122266,
2008-05-13, 00:41:04,VALID,1004.29,VALID,0,VALID,95.8035,VALID,0,VALID,23.4134,VALID,59,VALID,0,
2008-05-13, 00:42:04,VALID,1004.27,VALID,0,VALID,95.7577,VALID,0,VALID,23.3939,VALID,59,VALID,0,
2008-05-13, 00:43:04,VALID,1004.24,VALID,0,VALID,95.7501,VALID,0,VALID,23.3939,VALID,59,VALID,0,
2008-05-13, 00:44:04,VALID,1004.2,VALID,0,VALID,95.7806,VALID,0,VALID,23.3727,VALID,59,VALID,0,
2008-05-13, 00:45:04,VALID,1004.2,VALID,0,VALID,95.8035,VALID,0,VALID,23.3727,VALID,59,VALID,0,
2008-05-13, 00:46:04,VALID,1004.15,VALID,0,VALID,95.8493,VALID,0,VALID,23.3921,VALID,59,VALID,0,
2008-05-13, 00:47:04,VALID,1004.15,VALID,0,VALID,95.8874,VALID,0,VALID,23.4328,VALID,59,VALID,0,
2008-05-13, 00:48:04,VALID,1004.14,VALID,0,VALID,95.8569,VALID,0,VALID,23.4523,VALID,59,VALID,0,
2008-05-13, 00:49:04,VALID,1004.11,VALID,0,VALID,95.8187,VALID,0,VALID,23.4523,VALID,59,VALID,0,
2008-05-13, 00:50:04,VALID,1004.08,VALID,0,VALID,95.773,VALID,0,VALID,23.4116,VALID,59,VALID,0,
2008-05-13, 00:51:04,VALID,1004.08,VALID,0,VALID,95.7501,VALID,0,VALID,23.4116,VALID,59,VALID,0,
2008-05-13, 00:52:04,VALID,1004.05,VALID,0,VALID,95.7806,VALID,0,VALID,23.4328,VALID,59,VALID,0,
2008-05-13, 00:53:04,VALID,1004.04,VALID,0,VALID,95.8035,VALID,0,VALID,23.4134,VALID,59,VALID,0,
2008-05-13, 00:54:04,VALID,1004.03,VALID,0,VALID,95.7653,VALID,0,VALID,23.4328,VALID,59,VALID,0,
2008-05-13, 00:55:04,VALID,1004.03,VALID,0,VALID,95.8264,VALID,0,VALID,23.4328,VALID,59,VALID,0.297656,
2008-05-13, 00:56:04,VALID,1004.02,VALID,0,VALID,95.8798,VALID,0,VALID,23.4311,VALID,60,VALID,0.4,
2008-05-13, 00:57:04,VALID,1004,VALID,0,VALID,95.895,VALID,0,VALID,23.4718,VALID,64,VALID,0.24375,
2008-05-13, 00:58:04,VALID,1004,VALID,0,VALID,95.8416,VALID,0,VALID,23.4718,VALID,64,VALID,0.351953,
2008-05-13, 00:59:04,VALID,1003.98,VALID,0,VALID,95.7577,VALID,0,VALID,23.4718,VALID,64,VALID,0,
2008-05-13, 01:00:04,VALID,1003.96,VALID,0,VALID,95.6662,VALID,0,VALID,23.4328,VALID,64,VALID,0,
2008-05-13, 01:01:04,VALID,1003.95,VALID,0,VALID,95.6814,VALID,0,VALID,23.4134,VALID,64,VALID,0.223438,
2008-05-13, 01:02:04,VALID,1003.93,VALID,0,VALID,95.7043,VALID,0,VALID,23.4328,VALID,64,VALID,0.358203,
2008-05-13, 01:03:04,VALID,1003.94,VALID,0,VALID,95.689,VALID,0,VALID,23.3921,VALID,64,VALID,0,
2008-05-13, 01:04:04,VALID,1003.95,VALID,0,VALID,95.689,VALID,0,VALID,23.3727,VALID,64,VALID,0,
2008-05-13, 01:05:04,VALID,1003.92,VALID,0,VALID,95.6128,VALID,0,VALID,23.3337,VALID,64,VALID,0.292188,
2008-05-13, 01:06:04,VALID,1003.94,VALID,0,VALID,95.5822,VALID,0,VALID,23.316,VALID,64,VALID,0.40625,
2008-05-13, 01:07:04,VALID,1003.93,VALID,0,VALID,95.6128,VALID,0.100563,VALID,23.2754,VALID,64,VALID,0.320313,
2008-05-13, 01:08:04,VALID,1003.95,VALID,0,VALID,95.6356,VALID,0,VALID,23.2771,VALID,64,VALID,0.0914062,
2008-05-13, 01:09:04,VALID,1003.95,VALID,0,VALID,95.5975,VALID,0,VALID,23.2577,VALID,64,VALID,0,
2008-05-13, 01:10:04,VALID,1003.96,VALID,0,VALID,95.506,VALID,0,VALID,23.2187,VALID,64,VALID,0,
2008-05-13, 01:11:04,VALID,1003.92,VALID,0,VALID,95.4831,VALID,0,VALID,23.1798,VALID,64,VALID,0.113672,
2008-05-13, 01:12:04,VALID,1003.92,VALID,0,VALID,95.5899,VALID,0.100563,VALID,23.1798,VALID,64,VALID,0.439063,
2008-05-13, 01:13:04,VALID,1003.9,VALID,0,VALID,95.6662,VALID,0,VALID,23.1603,VALID,63,VALID,0.40625,
2008-05-13, 01:14:04,VALID,1003.89,VALID,0,VALID,95.8111,VALID,0,VALID,23.1391,VALID,63,VALID,0.297656,
2008-05-13, 01:15:04,VALID,1003.87,VALID,0,VALID,95.8569,VALID,0,VALID,23.1993,VALID,34,VALID,0.495703,
2008-05-13, 01:16:04,VALID,1003.84,VALID,0,VALID,95.8645,VALID,0,VALID,23.2187,VALID,8,VALID,0.574609,
2008-05-13, 01:17:04,VALID,1003.87,VALID,0,VALID,95.8645,VALID,0,VALID,23.1975,VALID,8,VALID,0.422266,
2008-05-13, 01:18:04,VALID,1003.83,VALID,0,VALID,95.834,VALID,0.100563,VALID,23.217,VALID,8,VALID,0.508984,
2008-05-13, 01:19:04,VALID,1003.84,VALID,0,VALID,95.8721,VALID,0,VALID,23.1975,VALID,8,VALID,0.425,
2008-05-13, 01:20:04,VALID,1003.8,VALID,0,VALID,95.8721,VALID,0.100563,VALID,23.217,VALID,8,VALID,0.484766,
2008-05-13, 01:21:04,VALID,1003.79,VALID,0,VALID,95.834,VALID,0,VALID,23.1975,VALID,8,VALID,0.454297,
2008-05-13, 01:22:04,VALID,1003.78,VALID,0,VALID,95.8035,VALID,0,VALID,23.1993,VALID,8,VALID,0.270312,
2008-05-13, 01:23:04,VALID,1003.74,VALID,0,VALID,95.9027,VALID,0,VALID,23.1975,VALID,8,VALID,0.137891,
2008-05-13, 01:24:04,VALID,1003.72,VALID,0,VALID,96.0018,VALID,0,VALID,23.2577,VALID,8,VALID,0.01875,
2008-05-13, 01:25:04,VALID,1003.72,VALID,0,VALID,95.9561,VALID,0,VALID,23.2577,VALID,8,VALID,0,
2008-05-13, 01:26:04,VALID,1003.73,VALID,0,VALID,95.8798,VALID,0,VALID,23.2364,VALID,8,VALID,0.00859375,
2008-05-13, 01:27:04,VALID,1003.74,VALID,0,VALID,95.8493,VALID,0,VALID,23.2382,VALID,8,VALID,0.358984,
2008-05-13, 01:28:04,VALID,1003.75,VALID,0,VALID,95.8264,VALID,0,VALID,23.1975,VALID,8,VALID,0.383984,
2008-05-13, 01:29:04,VALID,1003.73,VALID,0,VALID,95.8035,VALID,0.100563,VALID,23.1993,VALID,8,VALID,0.347266,
2008-05-13, 01:30:04,VALID,1003.73,VALID,0,VALID,95.8645,VALID,0,VALID,23.1993,VALID,7,VALID,0.489062,
2008-05-13, 01:31:04,VALID,1003.77,VALID,0,VALID,95.9789,VALID,0,VALID,23.1975,VALID,7,VALID,0.371875,
2008-05-13, 01:32:04,VALID,1003.76,VALID,0,VALID,95.9713,VALID,0.100563,VALID,23.1975,VALID,7,VALID,0.303906,
2008-05-13, 01:33:04,VALID,1003.78,VALID,0,VALID,95.9332,VALID,0,VALID,23.1975,VALID,7,VALID,0.217187,
2008-05-13, 01:34:04,VALID,1003.77,VALID,0,VALID,96.0095,VALID,0,VALID,23.2382,VALID,7,VALID,0.425781,
2008-05-13, 01:35:04,VALID,1003.77,VALID,0,VALID,96.0705,VALID,0,VALID,23.2364,VALID,7,VALID,0.376953,
2008-05-13, 01:36:04,VALID,1003.74,VALID,0,VALID,96.0171,VALID,0,VALID,23.2559,VALID,7,VALID,0.221094,
2008-05-13, 01:37:04,VALID,1003.75,VALID,0,VALID,95.9789,VALID,0,VALID,23.2559,VALID,7,VALID,0.195313,
2008-05-13, 01:38:04,VALID,1003.75,VALID,0,VALID,95.9713,VALID,0.100563,VALID,23.2364,VALID,7,VALID,0.204688,
2008-05-13, 01:39:04,VALID,1003.75,VALID,0,VALID,95.9942,VALID,0,VALID,23.2364,VALID,7,VALID,0.319141,
2008-05-13, 01:40:04,VALID,1003.73,VALID,0,VALID,95.9942,VALID,0.100563,VALID,23.2559,VALID,7,VALID,0.298828,
2008-05-13, 01:41:04,VALID,1003.7,VALID,0,VALID,95.9255,VALID,0,VALID,23.2559,VALID,7,VALID,0.282422,
2008-05-13, 01:42:04,VALID,1003.68,VALID,0,VALID,95.8874,VALID,0.100563,VALID,23.2364,VALID,6,VALID,0.504297,
2008-05-13, 01:43:04,VALID,1003.66,VALID,0,VALID,95.8035,VALID,0.100563,VALID,23.1975,VALID,4,VALID,0.5125,
2008-05-13, 01:44:04,VALID,1003.65,VALID,0,VALID,95.9713,VALID,0.100563,VALID,23.1975,VALID,357,VALID,0.535547,
2008-05-13, 01:45:04,VALID,1003.65,VALID,0,VALID,95.9713,VALID,0.100563,VALID,23.217,VALID,347,VALID,0.588281,
2008-05-13, 01:46:04,VALID,1003.65,VALID,0,VALID,96.0018,VALID,0,VALID,23.217,VALID,348,VALID,0.654297,
2008-05-13, 01:47:04,VALID,1003.63,VALID,0,VALID,95.9942,VALID,0,VALID,23.217,VALID,347,VALID,0.564453,
2008-05-13, 01:48:04,VALID,1003.62,VALID,0,VALID,95.9255,VALID,0,VALID,23.2382,VALID,347,VALID,0.513281,
2008-05-13, 01:49:04,VALID,1003.62,VALID,0,VALID,95.8798,VALID,0,VALID,23.1975,VALID,348,VALID,0.588281,
2008-05-13, 01:50:04,VALID,1003.63,VALID,0,VALID,95.8721,VALID,0,VALID,23.1993,VALID,348,VALID,0.546094,
2008-05-13, 01:51:04,VALID,1003.62,VALID,0,VALID,95.9255,VALID,0,VALID,23.1993,VALID,348,VALID,0.517187,
2008-05-13, 01:52:04,VALID,1003.63,VALID,0,VALID,95.9408,VALID,0.100563,VALID,23.1993,VALID,348,VALID,0.462109,
2008-05-13, 01:53:04,VALID,1003.62,VALID,0,VALID,95.9332,VALID,0,VALID,23.1798,VALID,348,VALID,0.350781,
2008-05-13, 01:54:04,VALID,1003.62,VALID,0,VALID,95.9179,VALID,0,VALID,23.1798,VALID,348,VALID,0.319141,
2008-05-13, 01:55:04,VALID,1003.58,VALID,0,VALID,95.895,VALID,0.100563,VALID,23.1391,VALID,348,VALID,0.400391,
2008-05-13, 01:56:04,VALID,1003.6,VALID,0,VALID,95.9179,VALID,0,VALID,23.1197,VALID,348,VALID,0.453516,
2008-05-13, 01:57:04,VALID,1003.59,VALID,0,VALID,95.9408,VALID,0,VALID,23.1409,VALID,348,VALID,0.564062,
2008-05-13, 01:58:04,VALID,1003.57,VALID,0,VALID,95.9484,VALID,0,VALID,23.1409,VALID,348,VALID,0.617969,
2008-05-13, 01:59:04,VALID,1003.55,VALID,0,VALID,95.9713,VALID,0,VALID,23.1409,VALID,349,VALID,0.607422,
2008-05-13, 02:00:04,VALID,1003.54,VALID,0,VALID,95.9637,VALID,0,VALID,23.1214,VALID,349,VALID,0.608594,
2008-05-13, 02:01:04,VALID,1003.54,VALID,0,VALID,95.9484,VALID,0,VALID,23.1002,VALID,349,VALID,0.512109,
2008-05-13, 02:02:04,VALID,1003.53,VALID,0,VALID,95.9179,VALID,0,VALID,23.0613,VALID,349,VALID,0.476172,
2008-05-13, 02:03:04,VALID,1003.57,VALID,0,VALID,95.9408,VALID,0,VALID,23.0825,VALID,349,VALID,0.514844,
2008-05-13, 02:04:04,VALID,1003.55,VALID,0,VALID,96.0018,VALID,0.100563,VALID,23.0825,VALID,349,VALID,0.510156,
2008-05-13, 02:05:04,VALID,1003.57,VALID,0,VALID,96.0705,VALID,0.100563,VALID,23.1019,VALID,349,VALID,0.504297,
2008-05-13, 02:06:04,VALID,1003.56,VALID,0,VALID,96.1468,VALID,0.100563,VALID,23.1214,VALID,349,VALID,0.455078,
2008-05-13, 02:07:04,VALID,1003.52,VALID,0,VALID,96.2078,VALID,0,VALID,23.1603,VALID,349,VALID,0.29375,
2008-05-13, 02:08:04,VALID,1003.54,VALID,0,VALID,96.2765,VALID,0,VALID,23.2187,VALID,349,VALID,0.164453,
2008-05-13, 02:09:04,VALID,1003.57,VALID,0,VALID,96.2765,VALID,0,VALID,23.2382,VALID,349,VALID,0.171484,
2008-05-13, 02:10:04,VALID,1003.55,VALID,0,VALID,96.1468,VALID,0,VALID,23.2382,VALID,349,VALID,0.313281,
2008-05-13, 02:11:04,VALID,1003.55,VALID,0,VALID,96.0247,VALID,0,VALID,23.178,VALID,349,VALID,0.374609,
2008-05-13, 02:12:04,VALID,1003.55,VALID,0,VALID,95.9713,VALID,0,VALID,23.1798,VALID,349,VALID,0.436328,
2008-05-13, 02:13:04,VALID,1003.56,VALID,0,VALID,95.9789,VALID,0,VALID,23.1197,VALID,349,VALID,0.383984,
2008-05-13, 02:14:04,VALID,1003.52,VALID,0,VALID,95.9789,VALID,0,VALID,23.1409,VALID,349,VALID,0.454688,
2008-05-13, 02:15:04,VALID,1003.55,VALID,0,VALID,95.9561,VALID,0,VALID,23.0807,VALID,349,VALID,0.449219,
2008-05-13, 02:16:04,VALID,1003.52,VALID,0,VALID,95.9103,VALID,0,VALID,23.0418,VALID,349,VALID,0.502344,
2008-05-13, 02:17:04,VALID,1003.55,VALID,0,VALID,95.9255,VALID,0,VALID,23.0436,VALID,349,VALID,0.505859,
2008-05-13, 02:18:04,VALID,1003.54,VALID,0,VALID,95.9637,VALID,0,VALID,23.0436,VALID,349,VALID,0.519922,
2008-05-13, 02:19:04,VALID,1003.54,VALID,0,VALID,95.9789,VALID,0,VALID,22.9834,VALID,349,VALID,0.399609,
2008-05-13, 02:20:04,VALID,1003.54,VALID,0,VALID,96.0247,VALID,0,VALID,23.0241,VALID,349,VALID,0.321094,
2008-05-13, 02:21:04,VALID,1003.55,VALID,0,VALID,96.101,VALID,0,VALID,23.0224,VALID,349,VALID,0.348047,
2008-05-13, 02:22:04,VALID,1003.55,VALID,0,VALID,96.1468,VALID,0,VALID,23.063,VALID,349,VALID,0.282813,
2008-05-13, 02:23:04,VALID,1003.53,VALID,0,VALID,96.1926,VALID,0,VALID,23.0613,VALID,349,VALID,0.348437,
2008-05-13, 02:24:04,VALID,1003.53,VALID,0,VALID,96.2307,VALID,0.100563,VALID,23.1019,VALID,349,VALID,0.301172,
2008-05-13, 02:25:04,VALID,1003.56,VALID,0,VALID,96.1315,VALID,0,VALID,23.0825,VALID,349,VALID,0.45,
2008-05-13, 02:26:04,VALID,1003.53,VALID,0,VALID,96.0552,VALID,0,VALID,23.063,VALID,349,VALID,0.491406,
2008-05-13, 02:27:04,VALID,1003.48,VALID,0,VALID,96.0247,VALID,0,VALID,23.0241,VALID,349,VALID,0.457422,
2008-05-13, 02:28:04,VALID,1003.46,VALID,0,VALID,96.0934,VALID,0,VALID,23.0453,VALID,349,VALID,0.516406,
2008-05-13, 02:29:04,VALID,1003.44,VALID,0,VALID,96.2612,VALID,0,VALID,23.063,VALID,349,VALID,0.687891,
2008-05-13, 02:30:04,VALID,1003.44,VALID,0,VALID,96.3833,VALID,0,VALID,23.1409,VALID,350,VALID,0.692578,
2008-05-13, 02:31:04,VALID,1003.43,VALID,0,VALID,96.3299,VALID,0,VALID,23.1586,VALID,350,VALID,0.564062,
2008-05-13, 02:32:04,VALID,1003.42,VALID,0,VALID,96.2688,VALID,0,VALID,23.1603,VALID,350,VALID,0.583203,
2008-05-13, 02:33:04,VALID,1003.43,VALID,0,VALID,96.2154,VALID,0,VALID,23.1603,VALID,350,VALID,0.620313,
2008-05-13, 02:34:04,VALID,1003.43,VALID,0,VALID,96.162,VALID,0,VALID,23.1621,VALID,350,VALID,0.699219,
2008-05-13, 02:35:04,VALID,1003.46,VALID,0,VALID,96.1392,VALID,0,VALID,23.1409,VALID,350,VALID,0.655469,
2008-05-13, 02:36:04,VALID,1003.45,VALID,0,VALID,96.2154,VALID,0,VALID,23.1409,VALID,353,VALID,0.784766,
2008-05-13, 02:37:04,VALID,1003.47,VALID,0,VALID,96.2841,VALID,0,VALID,23.1391,VALID,357,VALID,0.773828,
2008-05-13, 02:38:04,VALID,1003.46,VALID,0,VALID,96.3222,VALID,0,VALID,23.2187,VALID,351,VALID,0.924609,
2008-05-13, 02:39:04,VALID,1003.46,VALID,0,VALID,96.3375,VALID,0,VALID,23.217,VALID,345,VALID,0.728516,
2008-05-13, 02:40:04,VALID,1003.45,VALID,0,VALID,96.3222,VALID,0,VALID,23.2577,VALID,353,VALID,0.763672,
2008-05-13, 02:41:04,VALID,1003.44,VALID,0,VALID,96.2994,VALID,0,VALID,23.2577,VALID,355,VALID,0.557422,
2008-05-13, 02:42:04,VALID,1003.43,VALID,0,VALID,96.2612,VALID,0,VALID,23.2771,VALID,348,VALID,0.580469,
2008-05-13, 02:43:04,VALID,1003.39,VALID,0,VALID,96.2765,VALID,0,VALID,23.2559,VALID,348,VALID,0.261328,
2008-05-13, 02:44:04,VALID,1003.39,VALID,0,VALID,96.2917,VALID,0,VALID,23.2966,VALID,348,VALID,0.285547,
2008-05-13, 02:45:04,VALID,1003.37,VALID,0,VALID,96.307,VALID,0.100563,VALID,23.2948,VALID,348,VALID,0.206641,
2008-05-13, 02:46:04,VALID,1003.38,VALID,0,VALID,96.2765,VALID,0,VALID,23.3143,VALID,348,VALID,0.232422,
2008-05-13, 02:47:04,VALID,1003.36,VALID,0,VALID,96.2917,VALID,0,VALID,23.355,VALID,349,VALID,0.321484,
2008-05-13, 02:48:04,VALID,1003.33,VALID,0,VALID,96.2841,VALID,0,VALID,23.3762,VALID,349,VALID,0.54375,
2008-05-13, 02:49:04,VALID,1003.32,VALID,0,VALID,96.2231,VALID,0,VALID,23.3337,VALID,349,VALID,0.226953,
2008-05-13, 02:50:04,VALID,1003.34,VALID,0,VALID,96.0781,VALID,0,VALID,23.2966,VALID,349,VALID,0.263672,
2008-05-13, 02:51:04,VALID,1003.28,VALID,0,VALID,96.0781,VALID,0,VALID,23.2771,VALID,349,VALID,0.314453,
2008-05-13, 02:52:04,VALID,1003.28,VALID,0,VALID,96.1239,VALID,0,VALID,23.2771,VALID,349,VALID,0.341797,
2008-05-13, 02:53:04,VALID,1003.31,VALID,0,VALID,96.0552,VALID,0,VALID,23.2382,VALID,349,VALID,0.363281,
2008-05-13, 02:54:04,VALID,1003.3,VALID,0,VALID,96.04,VALID,0.100563,VALID,23.2187,VALID,349,VALID,0.351172,
2008-05-13, 02:55:04,VALID,1003.29,VALID,0,VALID,96.0476,VALID,0.100563,VALID,23.1993,VALID,349,VALID,0.345703,
2008-05-13, 02:56:04,VALID,1003.28,VALID,0,VALID,95.9866,VALID,0.100563,VALID,23.1603,VALID,349,VALID,0.367969,
2008-05-13, 02:57:04,VALID,1003.31,VALID,0,VALID,95.9637,VALID,0,VALID,23.1409,VALID,349,VALID,0.383594,
2008-05-13, 02:58:04,VALID,1003.29,VALID,0,VALID,95.9866,VALID,0,VALID,23.0825,VALID,349,VALID,0.427344,
2008-05-13, 02:59:04,VALID,1003.28,VALID,0,VALID,96.1392,VALID,0,VALID,23.1214,VALID,349,VALID,0.4375,
2008-05-13, 03:00:04,VALID,1003.28,VALID,0,VALID,96.0552,VALID,0,VALID,23.1019,VALID,349,VALID,0.498828,
2008-05-13, 03:01:04,VALID,1003.3,VALID,0,VALID,96.0476,VALID,0.100563,VALID,23.0613,VALID,349,VALID,0.466797,
2008-05-13, 03:02:04,VALID,1003.31,VALID,0,VALID,96.0095,VALID,0.100563,VALID,23.0613,VALID,349,VALID,0.444141,
2008-05-13, 03:03:04,VALID,1003.34,VALID,0,VALID,96.0552,VALID,0,VALID,23.0418,VALID,349,VALID,0.525,
2008-05-13, 03:04:04,VALID,1003.35,VALID,0,VALID,96.1163,VALID,0.100563,VALID,23.0418,VALID,349,VALID,0.5,
2008-05-13, 03:05:04,VALID,1003.36,VALID,0,VALID,96.1468,VALID,0.100563,VALID,23.063,VALID,349,VALID,0.465625,
2008-05-13, 03:06:04,VALID,1003.38,VALID,0,VALID,96.2841,VALID,0.100563,VALID,23.0807,VALID,349,VALID,0.426172,
2008-05-13, 03:07:04,VALID,1003.36,VALID,0,VALID,96.2154,VALID,0.100563,VALID,23.1002,VALID,349,VALID,0.534375,
2008-05-13, 03:08:04,VALID,1003.39,VALID,0,VALID,96.1392,VALID,0,VALID,23.1019,VALID,349,VALID,0.498047,
2008-05-13, 03:09:04,VALID,1003.38,VALID,0,VALID,96.0705,VALID,0,VALID,23.063,VALID,349,VALID,0.507422,
2008-05-13, 03:10:04,VALID,1003.41,VALID,0,VALID,96.0171,VALID,0,VALID,23.0241,VALID,349,VALID,0.498828,
2008-05-13, 03:11:04,VALID,1003.42,VALID,0,VALID,96.04,VALID,0,VALID,22.9852,VALID,349,VALID,0.448438,
2008-05-13, 03:12:04,VALID,1003.45,VALID,0,VALID,96.2765,VALID,0,VALID,23.0436,VALID,351,VALID,0.742969,
2008-05-13, 03:13:04,VALID,1003.46,VALID,0,VALID,96.4138,VALID,0,VALID,23.1409,VALID,354,VALID,0.813672,
2008-05-13, 03:14:04,VALID,1003.49,VALID,0,VALID,96.4062,VALID,0,VALID,23.1798,VALID,345,VALID,0.807813,
2008-05-13, 03:15:04,VALID,1003.5,VALID,0,VALID,96.3528,VALID,0,VALID,23.1993,VALID,356,VALID,0.848437,
2008-05-13, 03:16:04,VALID,1003.52,VALID,0,VALID,96.3451,VALID,0,VALID,23.2187,VALID,359,VALID,0.764844,
2008-05-13, 03:17:04,VALID,1003.52,VALID,0,VALID,96.3528,VALID,0,VALID,23.2577,VALID,298,VALID,0.477734,
2008-05-13, 03:18:04,VALID,1003.52,VALID,0,VALID,96.3604,VALID,0,VALID,23.2559,VALID,342,VALID,0.322266,
2008-05-13, 03:19:04,VALID,1003.53,VALID,0,VALID,96.3375,VALID,0.100563,VALID,23.316,VALID,343,VALID,0.637109,
2008-05-13, 03:20:04,VALID,1003.56,VALID,0,VALID,96.3222,VALID,0,VALID,23.316,VALID,344,VALID,0.161719,
2008-05-13, 03:21:04,VALID,1003.56,VALID,0,VALID,96.2841,VALID,0.100563,VALID,23.3143,VALID,333,VALID,0.321875,
2008-05-13, 03:22:04,VALID,1003.55,VALID,0,VALID,96.2536,VALID,0,VALID,23.3355,VALID,350,VALID,0.446094,
2008-05-13, 03:23:04,VALID,1003.54,VALID,0,VALID,96.246,VALID,0,VALID,23.355,VALID,350,VALID,0.195313,
2008-05-13, 03:24:04,VALID,1003.53,VALID,0,VALID,96.2688,VALID,0,VALID,23.3744,VALID,354,VALID,0.526563,
2008-05-13, 03:25:04,VALID,1003.54,VALID,0,VALID,96.3451,VALID,0,VALID,23.4134,VALID,356,VALID,0.570703,
2008-05-13, 03:26:04,VALID,1003.53,VALID,0,VALID,96.3451,VALID,0,VALID,23.4718,VALID,3,VALID,0.889453,
2008-05-13, 03:27:04,VALID,1003.56,VALID,0,VALID,96.3299,VALID,0,VALID,23.5107,VALID,7,VALID,0.858203,
2008-05-13, 03:28:04,VALID,1003.54,VALID,0,VALID,96.2841,VALID,0,VALID,23.5089,VALID,352,VALID,0.839063,
2008-05-13, 03:29:04,VALID,1003.56,VALID,0,VALID,96.2307,VALID,0,VALID,23.5885,VALID,357,VALID,0.885547,
2008-05-13, 03:30:04,VALID,1003.54,VALID,0,VALID,96.1392,VALID,0,VALID,23.5868,VALID,358,VALID,0.528125,
2008-05-13, 03:31:04,VALID,1003.55,VALID,0,VALID,96.0934,VALID,0.100563,VALID,23.6469,VALID,1,VALID,0.751562,
2008-05-13, 03:32:04,VALID,1003.54,VALID,0,VALID,96.0247,VALID,0,VALID,23.6469,VALID,341,VALID,0.626562,
2008-05-13, 03:33:04,VALID,1003.53,VALID,0,VALID,95.9408,VALID,0,VALID,23.6664,VALID,350,VALID,0.494141,
2008-05-13, 03:34:04,VALID,1003.53,VALID,0,VALID,95.8798,VALID,0.100563,VALID,23.6646,VALID,351,VALID,0.408984,
2008-05-13, 03:35:04,VALID,1003.53,VALID,0,VALID,95.8111,VALID,0.100563,VALID,23.6859,VALID,352,VALID,0.474609,
2008-05-13, 03:36:04,VALID,1003.52,VALID,0,VALID,95.7348,VALID,0,VALID,23.6859,VALID,351,VALID,0.501953,
2008-05-13, 03:37:04,VALID,1003.51,VALID,0,VALID,95.6738,VALID,0,VALID,23.7053,VALID,351,VALID,0.298438,
2008-05-13, 03:38:04,VALID,1003.5,VALID,0,VALID,95.5822,VALID,0,VALID,23.7053,VALID,351,VALID,0.382813,
2008-05-13, 03:39:04,VALID,1003.5,VALID,0,VALID,95.4907,VALID,0,VALID,23.6646,VALID,351,VALID,0.282031,
2008-05-13, 03:40:04,VALID,1003.51,VALID,0,VALID,95.4831,VALID,0,VALID,23.6469,VALID,341,VALID,0.384766,
2008-05-13, 03:41:04,VALID,1003.52,VALID,0,VALID,95.3915,VALID,0,VALID,23.6062,VALID,341,VALID,0.380078,
2008-05-13, 03:42:04,VALID,1003.53,VALID,0,VALID,95.2008,VALID,0,VALID,23.5903,VALID,343,VALID,0.513672,
2008-05-13, 03:43:04,VALID,1003.53,VALID,0,VALID,95.1321,VALID,0,VALID,23.5107,VALID,345,VALID,0.481641,
2008-05-13, 03:44:04,VALID,1003.55,VALID,0,VALID,95.1321,VALID,0,VALID,23.4311,VALID,345,VALID,0.515234,
2008-05-13, 03:45:04,VALID,1003.56,VALID,0,VALID,95.2695,VALID,0,VALID,23.4134,VALID,345,VALID,0.559766,